Zurück zum Katalog

DELTA 1 DEB

AktivSSO
NORAD 13531·DEBRIS·🇺🇸 United States

Gestartet Jul 29, 1976 von Vandenberg Space Force Base

Loading…

Nächste Überflüge (nächste 24 Stunden)

TLE

AktuellSource: Space-Track

Epoche: Sep 14, 2026, 10:36 UTC

1 13531U 76077ED  26257.44202812 -.00000022  00000-0  23305-3 0  9996
2 13531 102.7646 235.9780 0142332  14.0781 139.1914 12.17165586966912

Verfolge DELTA 1 DEB in Echtzeit mit AllMySat

Download on the App Store